Date,TemperatureHighF,TemperatureAvgF,TemperatureLowF,DewpointHighF,DewpointAvgF,DewpointLowF,HumidityHigh,HumidityAvg,HumidityLow,PressureMaxIn,PressureMinIn,WindSpeedMaxMPH,WindSpeedAvgMPH,GustSpeedMaxMPH,PrecipitationSumIn
2013-7-1,67.9,64.0,61.8,61.0,57.7,52.0,92,80,64,30.03,29.91,7,2,12,0.52
2013-7-2,71.7,66.6,62.7,63.0,60.3,58.0,86,80,73,30.06,29.99,7,3,11,0.00
2013-7-3,82.1,73.8,64.3,72.0,66.2,62.0,96,78,57,30.08,30.02,9,1,13,0.00
2013-7-4,81.5,74.7,69.6,70.0,68.8,67.0,94,82,63,30.11,30.05,9,2,14,0.00
2013-7-5,82.2,74.1,67.9,71.0,68.4,63.0,97,83,53,30.09,30.03,7,1,12,0.24
2013-7-6,81.0,74.3,70.3,72.0,69.8,68.0,97,86,69,30.09,29.98,8,1,11,0.27
2013-7-7,81.1,73.7,70.1,72.0,69.8,68.0,97,88,65,30.01,29.93,4,0,8,0.40
2013-7-8,73.0,70.7,69.6,69.0,67.3,66.0,91,88,87,30.02,29.99,4,1,7,0.01
2013-7-13,80.2,70.9,71.4,68.0,54.4,-99.9,78,66,67,30.19,0.00,2,-74,10,0.00
2013-7-14,86.0,77.8,69.0,73.0,70.1,64.0,95,78,62,30.24,30.19,9,1,10,0.00
2013-7-15,88.3,79.4,72.7,79.0,73.7,70.0,96,83,65,30.27,30.20,8,1,10,0.01
2013-7-16,89.0,80.3,75.2,78.0,76.4,74.0,98,88,65,30.28,30.20,5,0,9,0.00
2013-7-17,92.4,84.5,74.8,79.0,75.7,72.0,93,76,58,30.25,30.10,8,1,14,0.00
2013-7-18,90.4,82.6,73.3,79.0,74.9,70.0,93,78,63,30.12,29.92,11,1,15,0.00
2013-7-19,92.6,82.9,74.4,78.0,74.1,69.0,92,76,53,29.93,29.69,7,2,27,0.00
2013-7-20,84.8,76.3,70.4,74.0,67.8,63.0,96,77,51,29.90,29.69,6,1,12,0.00
2013-7-21,79.2,72.6,65.3,69.0,62.3,57.0,85,71,60,29.98,29.90,6,1,11,0.00
2013-7-22,80.6,73.6,70.1,70.0,66.9,62.0,88,80,54,29.95,29.75,6,1,10,0.00
2013-7-23,81.8,71.5,62.6,72.0,66.4,55.0,95,84,65,29.85,29.64,11,2,18,0.00
2013-7-24,69.4,64.0,57.7,55.0,52.0,49.0,75,66,58,30.04,29.86,10,4,15,0.00
2013-7-25,74.1,65.5,56.0,60.0,55.4,51.0,88,71,56,30.10,30.04,7,1,11,0.00
2013-7-26,77.1,68.8,57.3,62.0,58.6,55.0,93,72,49,30.09,29.89,8,1,13,0.00
2013-7-27,72.3,66.9,60.7,67.0,63.1,55.0,95,87,77,29.89,29.70,9,3,17,0.00
2013-7-28,67.8,60.8,53.1,54.0,52.4,50.0,93,74,60,29.97,29.82,8,1,16,0.00
2013-7-29,70.8,63.4,58.1,57.0,54.5,52.0,84,73,60,30.16,29.97,6,1,10,0.00
2013-7-30,75.9,67.5,56.6,63.0,58.7,54.0,93,74,59,30.22,30.11,6,1,10,0.00
2013-7-31,77.0,69.6,62.7,68.0,63.9,59.0,96,82,62,30.11,29.85,7,1,11,0.00